Date String (YYYY-MM-DD hh:mm:ss) UTC,Instrument flags,absolute air pressure of the measurement (hPa),sample flow rate (lpm),inlet stack bypass flow (lpm),air temperature of the measurement (°C),ambient temperature measured by the external sensor (°C),aerosol sample conditioner tube jacket temperature (°C),OPC LED temperature (°C),internal box temperature (°C),relative humidity of the measurement (%),span deviation,mass concentration of particles derived from Lorenz-Mie calculation of OPC scattering (μg/m³),mass concentration of particles derived from Lorenz-Mie calculation of OPC scattering (μg/m³),mass concentration of particles derived from Lorenz-Mie calculation of OPC scattering (μg/m³)
DateTimeUTC,F1_M11,P_M11,Q1_M11,Q2_M11,T1_M11,T2_M11,T3_M11,T4_M11,T5_M11,U1_M11,ZSPAN_M11,X0_M11,X2_M11,X1_M11
2024-04-11 10:00:00,SystemResetWarning,0833.4,5.01,000.00,024.4,023.5,000.0,033.0,026.3,017.9,0000.0,0005.37,0002.76,0002.13
2024-04-11 10:01:00,SystemResetWarning,0833.4,4.99,000.00,024.3,023.4,000.0,033.0,026.2,018.0,0000.0,0004.77,0002.76,0002.15
2024-04-11 10:02:00,SystemResetWarning,0833.4,4.99,000.00,024.3,023.5,000.0,033.0,026.2,018.0,0000.0,0004.41,0002.74,0002.16
2024-04-11 10:03:00,SystemResetWarning,0833.4,5.00,000.00,024.3,023.5,000.0,033.0,026.3,017.9,0000.0,0004.13,0002.76,0002.16
2024-04-11 10:04:00,SystemResetWarning,0833.4,5.00,000.00,024.3,023.5,000.0,033.0,026.2,017.9,0000.0,0004.10,0002.74,0002.14
2024-04-11 10:05:00,SystemResetWarning,0833.3,5.00,000.00,024.3,023.5,000.0,033.0,026.2,017.9,0000.0,0003.93,0002.69,0002.13
2024-04-11 10:06:00,SystemResetWarning,0833.4,5.00,000.00,024.3,023.5,000.0,033.0,026.3,017.9,0000.0,0003.84,0002.67,0002.11
2024-04-11 10:07:00,SystemResetWarning,0833.3,5.01,000.00,024.3,023.5,000.0,033.0,026.2,017.8,0000.0,0003.83,0002.66,0002.09
2024-04-11 10:08:00,SystemResetWarning,0833.3,4.99,000.00,024.3,023.5,000.0,033.0,026.2,017.8,0000.0,0003.68,0002.58,0002.05
2024-04-11 10:09:00,SystemResetWarning,0833.3,5.00,000.00,024.3,023.4,000.0,033.0,026.2,017.9,0000.0,0003.48,0002.49,0002.02
2024-04-11 10:10:00,SystemResetWarning,0833.3,5.00,000.00,024.3,023.4,000.0,033.0,026.2,017.9,0000.0,0003.41,0002.45,0002.00
2024-04-11 10:11:00,SystemResetWarning,0833.3,5.00,000.00,024.3,023.4,000.0,033.0,026.2,017.9,0000.0,0003.44,0002.46,0001.99
2024-04-11 10:12:00,SystemResetWarning,0833.3,5.00,000.00,024.3,023.4,000.0,033.0,026.2,017.9,0000.0,0003.44,0002.46,0001.98
2024-04-11 10:13:00,SystemResetWarning,0833.3,5.01,000.00,024.3,023.4,000.0,032.9,026.1,017.9,0000.0,0003.60,0002.49,0001.96
2024-04-11 10:14:00,SystemResetWarning,0833.3,5.00,000.00,024.3,023.4,000.0,032.9,026.2,017.9,0000.0,0003.45,0002.43,0001.94
2024-04-11 10:15:00,SystemResetWarning,0833.3,5.01,000.00,024.2,023.4,000.0,032.9,026.1,017.9,0000.0,0003.71,0002.42,0001.94
2024-04-11 10:16:00,SystemResetWarning,0833.3,5.00,000.00,024.2,023.4,000.0,032.9,026.1,018.0,0000.0,0003.88,0002.45,0001.94
2024-04-11 10:17:00,SystemResetWarning,0833.3,5.00,000.00,024.2,023.4,000.0,032.9,026.1,018.1,0000.0,0004.11,0002.51,0001.94
2024-04-11 10:18:00,SystemResetWarning,0833.3,4.99,000.00,024.2,023.4,000.0,032.9,026.1,018.1,0000.0,0004.16,0002.51,0001.93
2024-04-11 10:19:00,SystemResetWarning,0833.3,5.00,000.00,024.2,023.4,000.0,032.9,026.1,018.1,0000.0,0004.32,0002.59,0001.95
2024-04-11 10:20:00,SystemResetWarning,0833.3,5.00,000.00,024.2,023.3,000.0,032.9,026.1,018.1,0000.0,0004.54,0002.69,0001.96
2024-04-11 10:21:00,SystemResetWarning,0833.3,5.00,000.00,024.2,023.3,000.0,032.9,026.1,018.1,0000.0,0004.65,0002.74,0001.98
2024-04-11 10:22:00,SystemResetWarning,0833.3,5.00,000.00,024.2,023.3,000.0,032.9,026.1,018.1,0000.0,0004.76,0002.80,0001.99
2024-04-11 10:23:00,SystemResetWarning,0833.3,5.00,000.00,024.2,023.3,000.0,032.9,026.1,018.1,0000.0,0004.82,0002.82,0002.00
2024-04-11 10:24:00,SystemResetWarning,0833.3,5.01,000.00,024.2,023.3,000.0,032.8,026.1,017.9,0000.0,0004.78,0002.84,0002.03
2024-04-11 10:25:00,SystemResetWarning,0833.3,5.00,000.00,024.2,023.3,000.0,032.8,026.0,017.6,0000.0,0004.69,0002.83,0002.05
2024-04-11 10:26:00,SystemResetWarning,0833.3,4.99,000.00,024.1,023.2,000.0,032.8,026.0,017.4,0000.0,0004.72,0002.86,0002.05
2024-04-11 10:27:00,SystemResetWarning,0833.2,4.99,000.00,024.1,023.2,000.0,032.8,026.0,017.4,0000.0,0004.75,0002.89,0002.05
2024-04-11 10:28:00,SystemResetWarning,0833.2,5.00,000.00,024.1,023.2,000.0,032.8,026.0,017.4,0000.0,0004.83,0002.86,0002.05
2024-04-11 10:29:00,SystemResetWarning,0833.2,5.00,000.00,024.1,023.2,000.0,032.8,026.0,017.4,0000.0,0005.34,0002.89,0002.04
2024-04-11 10:30:00,SystemResetWarning,0833.2,5.00,000.00,024.1,023.2,000.0,032.8,026.0,017.3,0000.0,0006.92,0002.87,0002.04
2024-04-11 10:31:00,SystemResetWarning,0833.2,5.00,000.00,024.1,023.2,000.0,032.8,025.9,017.0,0000.0,0006.97,0002.79,0002.02
2024-04-11 10:32:00,SystemResetWarning,0833.2,4.99,000.00,024.1,023.1,000.0,032.8,025.9,016.7,0000.0,0007.04,0002.79,0002.00
2024-04-11 10:33:00,SystemResetWarning,0833.2,5.00,000.00,024.0,023.1,000.0,032.7,025.9,016.5,0000.0,0007.81,0002.74,0001.97
2024-04-11 10:34:00,SystemResetWarning,0833.2,5.00,000.00,024.0,023.1,000.0,032.7,025.9,016.4,0000.0,0008.51,0002.66,0001.93
2024-04-11 10:35:00,SystemResetWarning,0833.2,5.00,000.00,024.0,023.1,000.0,032.7,025.9,016.3,0000.0,0008.78,0002.58,0001.87
2024-04-11 10:36:00,SystemResetWarning,0833.2,5.00,000.00,024.0,023.1,000.0,032.7,025.9,016.2,0000.0,0009.18,0002.54,0001.83
2024-04-11 10:37:00,SystemResetWarning,0833.2,5.00,000.00,024.0,023.1,000.0,032.7,025.9,016.2,0000.0,0009.51,0002.48,0001.79
2024-04-11 10:38:00,SystemResetWarning,0833.2,5.00,000.00,024.0,023.0,000.0,032.7,025.8,016.1,0000.0,0009.88,0002.44,0001.76
2024-04-11 10:39:00,SystemResetWarning,0833.2,5.00,000.00,024.0,023.0,000.0,032.7,025.8,016.3,0000.0,0009.71,0002.37,0001.73
2024-04-11 10:40:00,SystemResetWarning,0833.1,5.00,000.00,023.9,023.0,000.0,032.7,025.8,016.3,0000.0,0009.38,0002.30,0001.70
2024-04-11 10:41:00,SystemResetWarning,0833.1,5.00,000.00,023.9,023.1,000.0,032.7,025.9,016.2,0000.0,0008.79,0002.24,0001.66
2024-04-11 10:42:00,SystemResetWarning,0833.2,5.00,000.00,023.9,023.1,000.0,032.6,025.8,016.1,0000.0,0008.78,0002.18,0001.63
2024-04-11 10:43:00,SystemResetWarning,0833.2,5.01,000.00,023.9,023.0,000.0,032.6,025.8,015.9,0000.0,0008.67,0002.10,0001.60
2024-04-11 10:44:00,SystemResetWarning,0833.1,5.01,000.00,023.9,023.0,000.0,032.6,025.8,015.6,0000.0,0008.87,0002.05,0001.56
2024-04-11 10:45:00,SystemResetWarning,0833.1,5.00,000.00,023.9,023.0,000.0,032.6,025.8,015.6,0000.0,0008.69,0002.01,0001.52
2024-04-11 10:46:00,SystemResetWarning,0833.2,4.99,000.00,023.9,023.0,000.0,032.6,025.8,015.6,0000.0,0008.39,0002.02,0001.50
2024-04-11 10:47:00,SystemResetWarning,0833.1,4.99,000.00,023.9,023.0,000.0,032.6,025.8,015.7,0000.0,0007.96,0002.01,0001.47
2024-04-11 10:48:00,SystemResetWarning,0833.2,5.00,000.00,023.9,023.0,000.0,032.6,025.8,015.7,0000.0,0008.17,0001.99,0001.45
2024-04-11 10:49:00,SystemResetWarning,0833.2,5.00,000.00,023.9,023.1,000.0,032.6,025.8,015.7,0000.0,0007.42,0001.99,0001.42
2024-04-11 10:50:00,SystemResetWarning,0833.1,5.01,000.00,023.9,023.1,000.0,032.6,025.8,015.6,0000.0,0007.47,0001.98,0001.41
2024-04-11 10:51:00,SystemResetWarning,0833.2,5.01,000.00,023.9,023.0,000.0,032.6,025.8,015.6,0000.0,0007.69,0001.97,0001.37
2024-04-11 10:52:00,SystemResetWarning,0833.1,5.01,000.00,023.9,023.0,000.0,032.6,025.7,015.6,0000.0,0007.59,0001.92,0001.35
2024-04-11 10:53:00,SystemResetWarning,0833.1,4.99,000.00,023.9,023.1,000.0,032.6,025.8,015.6,0000.0,0006.85,0001.87,0001.33
2024-04-11 10:54:00,SystemResetWarning,0833.1,4.99,000.00,023.9,023.0,000.0,032.5,025.8,015.6,0000.0,0007.04,0001.93,0001.32
2024-04-11 10:55:00,SystemResetWarning,0833.1,5.00,000.00,023.9,023.0,000.0,032.5,025.7,015.6,0000.0,0006.33,0001.92,0001.31
2024-04-11 10:56:00,SystemResetWarning,0833.1,5.00,000.00,023.9,023.0,000.0,032.5,025.7,015.4,0000.0,0004.74,0001.95,0001.31
2024-04-11 10:57:00,SystemResetWarning,0833.2,5.01,000.00,023.9,023.1,000.0,032.5,025.7,015.6,0000.0,0004.69,0001.93,0001.30
2024-04-11 10:58:00,SystemResetWarning,0833.2,5.00,000.00,023.9,023.1,000.0,032.5,025.7,015.6,0000.0,0004.51,0001.92,0001.31
2024-04-11 10:59:00,SystemResetWarning,0833.2,5.00,000.00,023.9,023.0,000.0,032.5,025.7,015.5,0000.0,0003.94,0001.96,0001.31
